Location: Rowland
(34.5359°N, 79.2929°W)
Time: 15:48:02
(UTC+00:00)

Transit 4A - Pass Details

Date: 09 October 2022
Orbit: 871 x 972 km, 66.8° (Epoch: 29 November)

Event Time Altitude Azimuth Distance (km) Brightness Sun altitude
Rises 00:46:43 0° 184° (S) 3,617 10.9 -24.5°
Reaches altitude 10° 00:49:25 10° 177° (S) 2,662 10.1 -25.0°
Enters shadow 00:50:35 16° 172° (S) 2,271 9.7 -25.3°
Maximum altitude 00:55:09 40° 110° (ESE) 1,338 - -26.2°
Drops below altitude 10° 01:00:45 10° 42° (NE) 2,612 - -27.3°
Sets 01:03:23 0° 35° (NE) 3,541 - -27.8°
